Simultaneous Nadir Overpasses (SNOs) Predictions

Prediction of SNOs between METOP-B and TERRA Satellite Orbit:

Table of predicted SNOs for the next 14.0 days since TLE Epoch: 9/5/2020
Index Date (METOP-B) Time (METOP-B) Lat,Lon (METOP-B) SZA (METOP-B ) Date (TERRA) Time (TERRA) Lat,Lon (TERRA) SZA (TERRA ) Distance(km) Time Diff (sec)
1 09/05/2020 18:31:19 -81.33, 129.90 102.20 09/05/2020 18:31:26 -81.33, 129.87 102.20 0.77 7
2 09/05/2020 19:21:59 81.34, -62.37 77.87 09/05/2020 19:20:52 81.33, -62.33 77.84 0.65 67
3 09/08/2020 13:15:19 81.16, 21.21 77.91 09/08/2020 13:16:32 80.91, 22.19 77.86 32.22 73
4 09/08/2020 14:05:40 -81.33,-163.86 101.14 09/08/2020 14:05:41 -81.32,-163.71 101.13 2.58 1
5 09/08/2020 14:56:19 81.34, 4.23 78.97 09/08/2020 14:55:07 81.33, 4.07 78.91 2.76 72
6 09/11/2020 08:49:20 81.33, 95.15 79.93 09/11/2020 08:50:29 81.33, 95.12 79.96 0.44 69
7 09/11/2020 09:40:00 -81.33, -97.23 100.03 09/11/2020 09:39:56 -81.32, -97.32 100.05 1.69 4
8 09/14/2020 04:23:40 81.32, 161.32 81.00 09/14/2020 04:24:43 81.32, 161.45 81.04 2.19 63
9 09/14/2020 05:14:19 -81.33, -30.62 98.91 09/14/2020 05:14:09 -81.34, -30.58 98.90 0.86 10
10 09/16/2020 23:57:59 81.33,-131.73 82.17 09/16/2020 23:58:57 81.33,-131.88 82.18 2.49 58
